RH
35 55 33 23 27 20 19 19 26 29 29 28 37 37 37 41 48 53 50 66 74 90 85 85 65 83 88 76 55 50 78 80 77 64 49 45 42 51 100 100 100 100 100 100 100 100 100
18 31 66 41 35 27 29 23 23 26 27 31 27 28 35 43 47 54 49 58 53 80 77 78 78 80 83 74 81 47 50 89 76 68 59 48 48 43 68 100 100 100 100 100 99 100 100
36 34 25 63 64 40 28 27 23 25 35 31 30 32 34 29 47 51 55 54 50 51 73 85 90 88 86 88 60 63 49 58 75 66 58 51 49 51 50 93 100 100 100 95 99 100 100
63 40 27 35 46 57 44 35 31 29 30 29 27 41 41 41 47 38 53 67 62 56 54 69 79 100 96 81 52 29 29 26 26 40 46 53 49 57 44 55 100 100 100 100 100 100 100
72 68 59 52 51 73 63 66 51 43 25 34 38 28 35 43 49 41 48 55 82 77 59 64 58 67 92 75 55 30 20 21 22 26 39 48 46 62 55 41 78 100 100 100 100 100 100
76 83 54 41 44 91 96 97 60 52 35 25 32 46 49 44 36 44 46 47 70 93 66 49 70 68 60 59 62 37 19 18 18 19 37 38 48 58 68 44 45 98 100 100 100 100 100
100 89 34 27 32 74 100 100 71 62 30 24 25 33 44 50 43 51 37 40 57 98 90 60 55 75 62 76 73 41 20 18 16 17 26 39 47 60 66 65 46 44 76 100 100 100 100
100 100 100 50 22 38 51 90 91 100 56 28 34 23 36 49 39 49 36 41 52 72 100 76 54 45 75 71 74 56 38 17 16 16 20 34 47 52 91 86 53 44 51 98 100 100 99
100 100 98 35 21 25 42 65 81 85 100 59 47 36 27 50 55 43 44 40 50 73 98 94 69 72 84 78 75 66 45 22 18 18 21 30 44 57 88 92 54 46 69 100 100 100 100
100 97 44 31 22 31 48 74 95 79 85 45 40 44 49 37 58 58 66 43 45 73 95 90 97 67 91 60 66 70 51 30 18 20 21 27 44 59 97 100 62 47 92 100 100 100 86
99 74 59 84 73 53 46 36 40 53 59 84 53 48 45 60 44 62 45 50 61 78 91 97 90 64 65 68 66 65 53 35 18 21 21 25 46 55 98 100 82 51 62 65 66 61 58
65 78 87 71 91 88 56 53 64 55 64 76 84 55 48 60 63 78 52 47 46 74 99 100 92 93 96 77 76 61 57 46 22 20 25 30 44 54 77 100 95 59 53 70 72 74 63
62 42 43 38 44 76 90 72 78 56 80 60 97 68 60 69 64 81 69 88 56 69 86 100 100 97 65 79 81 70 60 57 30 18 27 32 37 52 66 100 100 80 53 57 62 65 61
54 61 62 73 70 77 53 54 65 67 81 90 89 77 51 69 58 76 72 85 52 47 90 100 100 100 85 74 89 80 73 59 40 19 23 32 40 55 61 100 100 100 59 57 63 64 59
100 100 100 100 93 51 55 39 55 67 92 91 67 94 66 81 78 78 92 89 67 70 97 98 100 100 94 98 95 86 79 69 52 26 21 28 35 58 61 76 98 100 93 71 64 66 72
79 64 94 91 73 64 73 58 73 76 74 80 57 73 97 100 90 87 98 80 45 80 100 100 100 100 79 92 94 98 93 71 57 30 20 31 38 60 71 74 95 96 88 79 74 88 100
100 88 92 100 84 72 47 83 76 92 81 60 74 79 100 100 94 94 100 97 41 66 94 100 100 100 76 83 100 95 95 86 63 37 21 30 42 52 76 93 100 100 88 72 81 89 100
100 100 85 87 90 100 88 72 70 78 84 85 97 100 100 100 100 96 100 90 79 41 92 100 100 100 100 96 100 95 95 91 64 40 23 29 36 55 62 100 100 100 100 97 99 97 100
100 77 88 97 100 100 100 100 89 89 94 100 100 100 100 100 98 100 96 91 68 80 94 100 100 100 97 88 98 100 100 94 59 39 24 30 43 54 66 87 99 100 100 100 100 100 100
88 100 100 100 100 100 100 100 100 100 100 94 100 100 100 97 100 98 100 94 77 95 100 100 100 100 100 100 100 100 100 80 54 38 24 28 46 68 79 85 90 89 99 100 100 100 100
100 100 100 100 100 100 100 100 100 100 100 100 100 100 100 98 100 100 100 95 100 98 100 100 100 100 100 100 100 100 81 70 50 36 24 26 43 79 96 97 84 90 95 100 100 100 100
100 100 100 100 100 100 96 100 100 100 100 100 100 100 100 100 100 100 100 100 70 86 100 100 100 100 100 100 100 98 78 61 42 31 24 28 35 49 92 100 88 80 94 100 100 100 100
100 100 100 100 100 100 100 100 100 100 100 100 100 100 100 100 100 94 100 97 84 93 100 98 100 100 100 100 100 81 65 50 34 23 26 33 39 53 68 98 93 84 97 83 100 100 100
100 100 100 100 100 100 100 100 100 100 100 100 100 94 100 100 100 100 100 88 100 100 100 100 100 100 100 100 100 77 59 36 22 27 41 42 38 54 63 91 91 97 92 100 87 97 100
100 100 100 100 100 100 100 100 100 100 100 100 100 100 100 100 100 100 97 100 100 99 98 100 100 100 100 100 75 60 49 27 18 42 46 49 45 48 57 77 98 100 100 100 100 100 100
98 100 100 100 100 100 100 100 100 100 100 100 100 100 100 100 100 100 100 100 100 100 98 100 100 100 100 82 71 37 33 19 21 52 50 45 49 43 58 63 86 100 100 100 100 100 100
100 100 100 100 100 100 100 100 100 100 100 100 100 100 98 94 100 90 100 100 86 100 100 100 100 100 82 69 38 29 22 19 32 48 47 46 43 47 47 51 82 95 100 100 99 100 100
100 100 100 100 100 100 100 100 100 100 89 100 100 100 100 100 100 100 100 97 86 100 100 100 96 82 75 54 28 22 16 23 32 43 50 43 45 35 39 43 58 88 99 99 93 80 84
100 100 100 100 100 100 100 100 100 100 100 100 100 100 100 100 100 100 100 100 100 100 100 85 81 59 40 29 25 16 20 28 30 37 51 45 32 32 28 38 43 62 91 99 95 92 89
Wind_Speed
35 32 35 36 35 34 37 37 35 32 34 31 30 31 35 38 39 33 45 38 39 38 48 55 64 53 53 47 43 40 37 39 43 45 46 51 46 53 58 50 47 46 46 44 39 41 42
34 35 36 37 39 40 39 37 38 35 38 34 33 37 36 38 41 42 40 46 54 46 52 60 64 60 58 61 60 52 44 46 48 49 47 49 48 46 55 53 50 48 47 47 46 45 48
35 37 37 40 41 43 43 45 44 42 37 42 38 37 40 46 44 48 51 49 56 63 56 59 65 68 72 54 68 59 55 53 54 52 51 52 51 46 50 54 55 49 50 51 49 47 48
33 35 39 39 40 42 41 44 45 43 47 44 45 45 44 44 47 51 51 53 57 62 64 67 72 68 64 69 76 55 50 53 54 58 54 55 52 50 47 52 53 55 54 50 49 51 52
29 38 41 42 45 45 46 49 49 48 48 49 47 47 50 47 49 50 53 55 54 63 65 69 71 78 76 75 68 70 49 45 47 49 57 55 55 53 47 47 51 52 53 48 52 51 50
40 39 39 41 47 53 52 49 48 48 49 47 51 50 51 51 52 54 57 58 61 60 68 79 70 76 86 79 78 88 55 43 44 45 53 56 55 54 51 49 48 53 55 54 51 51 48
46 40 37 39 41 51 56 55 48 47 44 46 47 54 53 53 56 57 59 61 63 65 70 79 80 81 89 83 85 94 65 45 41 42 49 54 53 57 56 50 49 49 55 58 50 53 52
50 46 43 41 42 43 50 53 57 54 50 45 48 53 56 59 61 62 61 63 63 65 70 77 82 87 86 84 88 99 91 50 40 39 44 54 53 55 56 54 49 46 48 50 48 51 50
49 51 48 46 47 46 48 54 55 55 58 56 52 57 59 60 62 68 66 66 66 67 69 73 87 88 88 92 93 93 106 66 39 36 42 51 52 55 58 54 50 44 42 43 46 50 51
54 51 48 46 48 51 52 54 61 57 57 57 57 58 61 63 64 70 71 69 71 67 68 76 81 85 89 98 94 92 97 73 42 34 38 49 53 57 57 57 52 44 43 45 48 49 46
51 53 51 54 58 55 54 53 54 56 58 63 64 65 65 65 67 71 76 76 75 71 71 79 85 88 92 96 100 99 95 81 51 34 36 44 55 59 58 58 55 43 45 44 43 42 40
56 57 60 59 59 59 61 64 60 60 60 65 62 67 71 70 69 71 75 79 78 78 74 76 84 88 93 95 99 103 99 101 66 36 33 38 54 59 60 58 57 51 46 44 42 40 38
63 61 63 62 63 63 65 65 65 62 62 62 63 69 73 72 72 74 77 77 80 82 81 79 83 88 98 97 96 102 105 104 75 44 33 36 49 59 62 59 57 53 49 46 41 40 41
66 69 70 69 65 68 65 66 67 66 64 65 68 69 70 71 71 77 80 80 81 85 85 84 85 91 97 97 94 99 98 99 91 58 34 36 43 58 61 61 58 58 51 47 44 45 43
73 76 74 76 75 71 70 70 69 70 68 69 70 72 73 73 73 79 80 83 87 87 85 85 92 89 100 99 94 103 103 95 102 69 40 32 40 53 63 68 66 62 57 54 48 45 45
74 75 74 76 77 73 73 72 71 73 73 73 73 75 77 76 77 78 83 84 87 92 84 83 93 99 99 98 101 100 97 106 109 80 49 31 37 51 62 68 68 64 61 58 53 49 49
83 79 76 77 74 74 76 75 76 77 77 75 75 79 81 80 82 83 83 87 89 90 91 87 92 94 101 107 95 96 100 97 101 88 59 35 34 45 57 65 69 68 65 63 60 57 56
83 81 82 82 78 81 81 79 81 81 81 80 80 84 84 84 85 88 91 96 95 94 91 91 94 101 105 105 100 106 105 94 105 85 59 39 35 42 49 63 69 71 68 66 62 59 57
84 89 81 78 80 84 86 85 85 87 89 85 88 89 89 88 93 91 92 97 95 96 96 95 102 107 101 105 107 99 105 98 99 75 58 44 34 38 49 55 62 71 73 69 66 62 57
87 86 80 84 86 86 88 90 92 91 92 92 94 96 93 95 95 95 94 97 96 98 100 101 104 104 107 110 106 101 101 104 95 75 59 44 37 40 43 49 53 60 72 74 71 62 60
83 85 84 87 92 91 93 94 96 95 96 96 96 102 96 96 98 100 100 101 101 104 106 105 107 106 113 108 108 105 111 107 92 75 59 47 38 44 49 51 51 55 61 70 71 69 65
92 88 90 92 93 92 92 96 101 97 98 101 100 102 101 98 103 104 106 107 102 103 105 113 109 114 107 108 116 122 111 104 83 71 57 48 42 42 49 58 58 55 56 62 67 69 65
93 95 94 93 92 95 99 101 102 104 103 101 104 106 105 107 106 107 109 108 107 109 112 114 114 118 117 115 117 117 110 89 78 66 56 48 46 45 45 54 57 53 51 59 65 64 63
103 96 98 96 97 100 101 102 103 109 109 110 110 108 109 108 111 109 111 112 111 115 117 116 119 116 120 125 128 123 109 88 74 59 51 52 47 47 48 53 52 55 55 54 58 67 62
106 104 102 103 104 104 105 106 107 109 110 108 111 112 110 109 112 112 113 115 115 117 118 122 115 120 126 127 125 114 88 82 69 56 51 52 49 48 49 51 51 54 53 51 49 53 59
111 113 113 114 112 110 113 110 109 109 109 109 113 109 109 115 116 116 117 122 119 126 124 126 128 132 120 124 128 95 86 76 64 53 56 51 51 48 50 52 52 54 55 53 54 54 54
115 115 117 117 115 114 116 116 115 116 115 116 117 116 116 117 118 117 118 123 127 129 133 130 127 129 135 129 101 91 79 72 58 54 54 57 52 49 52 51 54 59 58 61 57 55 58
117 113 115 116 119 116 117 120 120 117 121 119 118 119 123 125 126 124 127 130 130 127 129 130 138 137 135 115 97 84 71 68 58 55 57 57 55 52 52 49 51 61 65 65 63 61 61
128 122 121 117 116 120 121 120 118 115 119 122 120 122 128 129 131 133 136 136 135 135 137 139 142 124 101 98 87 76 69 63 59 57 61 60 55 53 49 50 50 57 65 67 69 69 63
Wind_Direction
351 348 358 6 6 11 15 16 20 23 24 15 13 16 18 19 23 8 16 13 20 12 14 15 7 7 356 342 325 303 287 275 272 266 263 259 258 252 248 247 247 251 250 252 259 257 256
342 347 341 348 354 358 360 4 5 10 13 20 17 19 14 11 5 6 11 13 15 10 13 10 10 2 358 346 334 314 291 281 269 261 253 249 250 251 247 242 243 249 254 255 258 259 256
335 339 345 339 334 344 354 355 360 359 360 2 4 3 4 4 2 360 1 6 13 9 6 6 5 1 358 342 340 317 295 278 268 259 252 247 244 245 246 242 244 244 249 250 254 257 257
327 331 327 327 333 332 343 344 345 349 351 355 355 355 355 356 357 356 357 1 6 6 7 8 3 0 353 353 346 325 299 286 275 256 247 244 241 238 244 240 242 244 248 249 250 253 254
314 322 324 322 320 320 325 331 334 339 345 344 345 351 353 352 351 352 351 351 351 360 4 4 4 7 359 358 342 343 318 296 282 267 248 239 237 234 239 242 239 242 245 245 249 252 255
307 318 317 319 317 319 317 318 328 331 335 340 339 340 342 345 349 349 348 348 349 347 359 359 360 2 2 360 353 352 333 305 287 271 248 240 236 233 234 238 238 240 240 242 247 250 253
300 303 310 312 314 315 313 313 313 323 333 338 341 338 341 339 342 345 346 343 350 343 352 357 359 1 358 355 355 353 348 317 294 272 250 240 234 233 232 237 240 239 240 242 243 250 252
293 291 302 306 308 308 311 310 312 310 319 330 335 336 340 337 340 340 345 343 341 344 342 352 356 356 356 355 355 353 354 333 302 276 256 239 233 234 232 235 239 242 243 242 243 249 254
285 288 297 303 302 305 306 305 305 308 310 314 325 331 335 336 335 336 342 341 341 344 346 348 351 354 355 353 352 351 355 345 313 281 258 243 232 232 233 234 238 240 240 240 242 249 252
271 289 294 298 301 303 303 303 306 306 306 312 319 326 329 332 331 334 333 339 339 342 342 345 349 352 354 355 352 348 350 348 321 290 263 246 233 230 231 234 237 238 238 239 244 247 249
275 282 288 294 296 298 303 305 309 305 305 303 310 318 324 327 332 332 334 335 336 338 339 343 346 346 348 350 354 353 354 351 333 303 264 251 234 231 230 233 237 236 237 236 239 244 246
280 283 289 290 294 296 299 300 300 304 303 304 311 316 320 325 328 329 330 332 337 337 338 335 343 345 348 347 347 351 354 354 339 311 284 253 238 232 230 231 236 238 236 238 240 244 244
282 286 290 291 292 296 298 299 297 301 300 305 307 314 319 321 326 325 328 329 330 333 334 336 338 341 343 344 346 348 348 349 342 319 296 260 248 236 230 231 235 239 239 238 239 243 243
280 285 286 287 289 292 293 297 296 296 301 303 305 311 317 321 323 321 323 325 329 330 333 334 334 338 339 340 342 345 345 349 348 332 299 275 244 242 233 229 233 237 238 239 241 245 247
280 284 285 283 286 289 290 294 296 297 297 300 307 308 315 318 320 318 319 321 326 326 327 328 336 336 338 336 340 341 344 344 346 335 306 283 251 241 237 231 227 231 235 237 238 242 246
275 279 281 283 285 289 291 291 293 296 299 299 304 308 309 314 316 317 316 321 325 326 325 325 332 333 335 335 337 338 340 342 344 337 318 288 260 240 240 237 234 235 234 235 238 242 248
275 275 277 279 285 286 289 288 291 293 294 301 303 306 308 309 312 314 312 317 323 325 323 323 329 331 333 332 331 335 335 336 339 334 321 289 272 247 240 240 237 237 238 239 240 239 245
274 273 277 278 283 283 286 285 288 292 294 299 302 302 305 305 308 310 308 313 315 319 320 318 323 326 328 330 328 332 333 331 334 331 319 292 275 252 238 238 238 239 239 243 246 249 254
272 276 276 278 282 283 284 285 291 294 295 297 300 300 301 303 306 307 310 311 315 316 319 317 318 321 326 327 325 324 329 327 330 325 317 296 276 258 240 238 240 240 240 242 245 247 252
273 272 273 276 279 277 277 284 287 289 291 295 298 298 300 302 304 305 309 310 314 313 314 316 317 320 324 324 323 324 326 326 326 320 315 295 275 264 250 244 244 242 240 241 244 247 250
267 268 271 273 275 278 279 280 282 285 289 291 295 297 297 300 300 303 306 309 312 313 313 313 316 316 321 321 323 324 323 324 320 315 311 295 273 257 250 250 248 245 243 242 244 247 249
264 265 267 269 271 276 278 279 280 284 287 289 291 295 294 296 299 302 301 306 309 308 309 310 312 314 316 316 319 320 321 321 315 311 304 291 277 260 250 245 247 245 246 244 244 247 249
262 264 267 267 271 274 276 277 281 283 285 289 289 290 293 292 296 299 299 302 304 304 306 308 309 310 312 315 316 319 318 314 312 307 299 289 275 263 253 250 248 248 247 246 243 246 248
263 264 266 268 270 272 274 276 279 281 282 284 286 288 290 291 293 296 297 301 302 303 304 303 305 307 308 310 311 314 314 312 309 303 292 284 275 263 253 248 248 247 246 245 244 242 246
260 264 264 267 269 271 271 274 276 277 279 282 284 286 288 290 291 293 295 295 297 299 302 302 305 307 308 309 312 313 309 307 305 296 287 281 276 265 255 248 242 243 242 239 238 242 243
260 263 264 266 270 268 270 273 275 276 278 280 282 282 285 288 290 292 291 294 293 297 298 300 302 302 306 308 309 307 306 304 300 292 285 280 277 268 255 247 243 240 240 239 238 239 241
259 261 263 265 267 268 270 272 274 276 278 279 280 281 284 287 288 289 291 293 294 296 296 296 300 302 305 308 304 304 302 301 294 287 280 281 276 267 258 248 242 242 239 241 239 240 242
256 258 257 263 263 265 267 269 273 274 277 275 276 277 281 282 283 287 288 291 294 295 296 298 300 301 301 302 301 300 299 296 291 284 282 278 273 266 259 252 243 240 242 241 244 240 242
250 249 254 259 258 262 267 268 268 270 272 273 274 277 278 280 282 284 288 289 292 292 295 297 299 301 299 299 298 296 295 292 286 282 278 275 270 264 259 252 246 241 239 243 244 243 243